Time,TemperatureF,DewpointF,PressureIn,WindDirection,WindDirectionDegrees,WindSpeedMPH,WindSpeedGustMPH,Humidity,HourlyPrecipIn,Conditions,Clouds,dailyrainin,SoftwareType,DateUTC
2013-11-11 00:22:00,43.0,32.0,30.22,South,178,0.0,-999.0,64,-99.99,,,-99.99,,2013-11-11 06:22:00,
2013-11-11 00:42:00,44.0,32.0,30.20,South,184,1.0,-999.0,63,-99.99,,,-99.99,,2013-11-11 06:42:00,
2013-11-11 00:52:00,44.0,32.0,30.19,SSW,195,2.0,-999.0,62,-99.99,,,-99.99,,2013-11-11 06:52:00,
2013-11-11 01:22:00,44.0,32.0,30.18,South,171,1.0,-999.0,62,-99.99,,,-99.99,,2013-11-11 07:22:00,
2013-11-11 01:42:00,44.0,32.0,30.18,South,182,2.0,-999.0,63,-99.99,,,-99.99,,2013-11-11 07:42:00,
2013-11-11 01:52:00,44.0,32.0,30.18,South,189,2.0,-999.0,63,-99.99,,,-99.99,,2013-11-11 07:52:00,
2013-11-11 02:22:00,44.0,32.0,30.16,South,185,2.0,-999.0,63,-99.99,,,-99.99,,2013-11-11 08:22:00,
2013-11-11 02:42:00,45.0,33.0,30.14,SSW,196,2.0,-999.0,62,-99.99,,,-99.99,,2013-11-11 08:42:00,
2013-11-11 02:52:00,45.0,33.0,30.14,South,186,2.0,-999.0,62,-99.99,,,-99.99,,2013-11-11 08:52:00,
2013-11-11 03:22:00,45.0,33.0,30.13,South,183,2.0,-999.0,62,-99.99,,,-99.99,,2013-11-11 09:22:00,
2013-11-11 03:43:00,45.0,33.0,30.13,SSE,164,2.0,-999.0,62,-99.99,,,-99.99,,2013-11-11 09:43:00,
2013-11-11 03:54:00,45.0,32.0,30.13,SSW,196,2.0,-999.0,61,-99.99,,,-99.99,,2013-11-11 09:54:00,
2013-11-11 04:23:00,46.0,33.0,30.12,South,177,3.0,-999.0,60,-99.99,,,-99.99,,2013-11-11 10:23:00,
2013-11-11 04:42:00,46.0,33.0,30.11,South,186,3.0,-999.0,60,-99.99,,,-99.99,,2013-11-11 10:42:00,
2013-11-11 04:52:00,46.0,33.0,30.11,South,186,3.0,-999.0,60,-99.99,,,-99.99,,2013-11-11 10:52:00,
2013-11-11 05:12:00,46.0,33.0,30.11,South,180,1.0,-999.0,61,-99.99,,,-99.99,,2013-11-11 11:12:00,
2013-11-11 05:21:00,46.0,34.0,30.11,SSW,200,0.0,-999.0,62,-99.99,,,-99.99,,2013-11-11 11:21:00,
2013-11-11 05:42:00,46.0,34.0,30.10,South,189,1.0,-999.0,62,-99.99,,,-99.99,,2013-11-11 11:42:00,
2013-11-11 05:52:00,46.0,33.0,30.09,South,188,1.0,-999.0,61,-99.99,,,-99.99,,2013-11-11 11:52:00,
2013-11-11 06:12:00,46.0,33.0,30.09,South,190,0.0,-999.0,61,-99.99,,,-99.99,,2013-11-11 12:12:00,
2013-11-11 06:22:00,46.0,34.0,30.10,WSW,243,0.0,-999.0,62,-99.99,,,-99.99,,2013-11-11 12:22:00,
2013-11-11 06:42:00,46.0,34.0,30.10,WSW,242,0.0,-999.0,63,-99.99,,,-99.99,,2013-11-11 12:42:00,
2013-11-11 06:52:00,46.0,35.0,30.10,SSW,194,0.0,-999.0,64,-99.99,,,-99.99,,2013-11-11 12:52:00,
2013-11-11 07:11:00,46.0,35.0,30.11,SSW,194,0.0,-999.0,65,-99.99,,,-99.99,,2013-11-11 13:11:00,
2013-11-11 07:21:00,46.0,35.0,30.11,SSW,194,0.0,-999.0,66,-99.99,,,-99.99,,2013-11-11 13:21:00,
2013-11-11 07:42:00,46.0,36.0,30.13,West,266,1.0,-999.0,67,-99.99,,,-99.99,,2013-11-11 13:42:00,
2013-11-11 07:52:00,46.0,36.0,30.14,West,277,2.0,-999.0,68,-99.99,,,-99.99,,2013-11-11 13:52:00,
2013-11-11 08:21:00,45.0,36.0,30.14,West,271,1.0,-999.0,70,-99.99,,,-99.99,,2013-11-11 14:21:00,
2013-11-11 08:42:00,45.0,36.0,30.14,West,273,1.0,-999.0,71,-99.99,,,-99.99,,2013-11-11 14:42:00,
2013-11-11 08:52:00,45.0,36.0,30.14,NW,321,0.0,-999.0,71,-99.99,,,-99.99,,2013-11-11 14:52:00,
2013-11-11 09:21:00,45.0,35.0,30.14,NW,317,1.0,-999.0,69,-99.99,,,-99.99,,2013-11-11 15:21:00,
2013-11-11 09:43:00,45.0,36.0,30.15,NW,311,3.0,-999.0,70,-99.99,,,-99.99,,2013-11-11 15:43:00,
2013-11-11 09:53:00,45.0,36.0,30.16,NW,310,3.0,-999.0,71,-99.99,,,-99.99,,2013-11-11 15:53:00,
2013-11-11 10:23:00,45.0,36.0,30.17,NW,313,3.0,-999.0,71,-99.99,,,-99.99,,2013-11-11 16:23:00,
2013-11-11 10:42:00,45.0,35.0,30.19,WNW,290,2.0,-999.0,69,-99.99,,,-99.99,,2013-11-11 16:42:00,
2013-11-11 10:53:00,45.0,35.0,30.19,West,259,3.0,-999.0,68,-99.99,,,-99.99,,2013-11-11 16:53:00,
2013-11-11 11:22:00,44.0,34.0,30.20,NW,313,2.0,-999.0,68,-99.99,,,-99.99,,2013-11-11 17:22:00,
2013-11-11 11:42:00,43.0,34.0,30.21,WNW,286,5.0,-999.0,70,-99.99,,,-99.99,,2013-11-11 17:42:00,
2013-11-11 11:52:00,42.0,33.0,30.22,NNW,327,5.0,-999.0,71,-99.99,,,-99.99,,2013-11-11 17:52:00,
2013-11-11 12:23:00,41.0,34.0,30.22,NW,317,4.0,-999.0,75,-99.99,,,-99.99,,2013-11-11 18:23:00,
2013-11-11 12:42:00,40.0,34.0,30.23,WSW,252,3.0,-999.0,78,-99.99,,,-99.99,,2013-11-11 18:42:00,
2013-11-11 12:52:00,38.0,33.0,30.24,NNW,342,4.0,-999.0,81,-99.99,,,-99.99,,2013-11-11 18:52:00,
2013-11-11 13:22:00,36.0,32.0,30.24,NW,315,3.0,-999.0,86,-99.99,,,-99.99,,2013-11-11 19:22:00,
2013-11-11 13:42:00,36.0,32.0,30.26,NNW,340,3.0,-999.0,86,-99.99,,,-99.99,,2013-11-11 19:42:00,
2013-11-11 13:53:00,35.0,32.0,30.27,NW,321,4.0,-999.0,88,-99.99,,,-99.99,,2013-11-11 19:53:00,
2013-11-11 14:11:00,33.0,31.0,30.28,NW,318,3.0,-999.0,91,-99.99,,,-99.99,,2013-11-11 20:11:00,
2013-11-11 14:22:00,33.0,31.0,30.29,NW,321,3.0,-999.0,93,-99.99,,,-99.99,,2013-11-11 20:22:00,
2013-11-11 14:42:00,33.0,31.0,30.30,NNW,327,4.0,-999.0,93,-99.99,,,-99.99,,2013-11-11 20:42:00,
2013-11-11 14:52:00,32.0,30.0,30.30,WNW,289,4.0,-999.0,93,-99.99,,,-99.99,,2013-11-11 20:52:00,
2013-11-11 15:12:00,32.0,30.0,30.31,WNW,293,5.0,-999.0,94,-99.99,,,-99.99,,2013-11-11 21:12:00,
2013-11-11 15:22:00,31.0,29.0,30.31,NNW,327,4.0,-999.0,93,-99.99,,,-99.99,,2013-11-11 21:22:00,
2013-11-11 15:43:00,30.0,28.0,30.32,NW,310,4.0,-999.0,93,-99.99,,,-99.99,,2013-11-11 21:43:00,
2013-11-11 15:55:00,29.0,27.0,30.33,NW,304,5.0,-999.0,94,-99.99,,,-99.99,,2013-11-11 21:55:00,
2013-11-11 16:24:00,29.0,27.0,30.35,NW,304,4.0,-999.0,94,-99.99,,,-99.99,,2013-11-11 22:24:00,
2013-11-11 16:43:00,29.0,27.0,30.36,NW,313,3.0,-999.0,94,-99.99,,,-99.99,,2013-11-11 22:43:00,
2013-11-11 16:53:00,29.0,27.0,30.37,NNW,327,3.0,-999.0,94,-99.99,,,-99.99,,2013-11-11 22:53:00,
2013-11-11 17:22:00,29.0,27.0,30.39,West,279,4.0,-999.0,91,-99.99,,,-99.99,,2013-11-11 23:22:00,
2013-11-11 17:42:00,29.0,27.0,30.40,NNW,333,3.0,-999.0,91,-99.99,,,-99.99,,2013-11-11 23:42:00,
2013-11-11 17:53:00,29.0,26.0,30.41,NNE,13,4.0,-999.0,89,-99.99,,,-99.99,,2013-11-11 23:53:00,
2013-11-11 18:11:00,29.0,25.0,30.42,West,274,5.0,-999.0,86,-99.99,,,-99.99,,2013-11-12 00:11:00,
2013-11-11 18:22:00,29.0,25.0,30.43,West,268,4.0,-999.0,85,-99.99,,,-99.99,,2013-11-12 00:22:00,
2013-11-11 18:42:00,28.0,24.0,30.44,NW,313,5.0,-999.0,83,-99.99,,,-99.99,,2013-11-12 00:42:00,
2013-11-11 18:52:00,28.0,23.0,30.45,NNW,343,5.0,-999.0,81,-99.99,,,-99.99,,2013-11-12 00:52:00,
2013-11-11 19:11:00,28.0,23.0,30.47,WNW,284,4.0,-999.0,80,-99.99,,,-99.99,,2013-11-12 01:11:00,
2013-11-11 19:22:00,27.0,21.0,30.47,WNW,282,4.0,-999.0,78,-99.99,,,-99.99,,2013-11-12 01:22:00,
2013-11-11 19:42:00,27.0,21.0,30.48,NW,325,3.0,-999.0,77,-99.99,,,-99.99,,2013-11-12 01:42:00,
2013-11-11 19:52:00,27.0,21.0,30.49,WNW,294,1.0,-999.0,78,-99.99,,,-99.99,,2013-11-12 01:52:00,
2013-11-11 20:22:00,27.0,21.0,30.50,NW,312,1.0,-999.0,79,-99.99,,,-99.99,,2013-11-12 02:22:00,
2013-11-11 20:42:00,26.0,20.0,30.51,NNW,336,3.0,-999.0,79,-99.99,,,-99.99,,2013-11-12 02:42:00,
2013-11-11 20:52:00,26.0,21.0,30.52,NNW,338,3.0,-999.0,80,-99.99,,,-99.99,,2013-11-12 02:52:00,
2013-11-11 21:21:00,26.0,22.0,30.54,NNW,339,2.0,-999.0,83,-99.99,,,-99.99,,2013-11-12 03:21:00,
2013-11-11 21:45:00,25.0,21.0,30.55,NW,319,2.0,-999.0,84,-99.99,,,-99.99,,2013-11-12 03:45:00,
2013-11-11 21:54:00,24.0,20.0,30.55,WNW,294,2.0,-999.0,83,-99.99,,,-99.99,,2013-11-12 03:54:00,
2013-11-11 22:14:00,24.0,20.0,30.56,WNW,286,3.0,-999.0,84,-99.99,,,-99.99,,2013-11-12 04:14:00,
2013-11-11 22:24:00,23.0,19.0,30.57,NNW,328,3.0,-999.0,84,-99.99,,,-99.99,,2013-11-12 04:24:00,
2013-11-11 22:43:00,23.0,19.0,30.58,NW,323,3.0,-999.0,84,-99.99,,,-99.99,,2013-11-12 04:43:00,
2013-11-11 22:53:00,22.0,18.0,30.59,WNW,292,4.0,-999.0,83,-99.99,,,-99.99,,2013-11-12 04:53:00,
2013-11-11 23:23:00,22.0,17.0,30.60,NW,307,3.0,-999.0,82,-99.99,,,-99.99,,2013-11-12 05:23:00,
2013-11-11 23:54:00,21.0,16.0,30.62,NW,317,2.0,-999.0,82,-99.99,,,-99.99,,2013-11-12 05:54:00,